1511582400.76,3445,8.94,73534.0,-2.19,-19.57,-19.85,0,*63
1511582401.99,3446,8.94,73542.0,-2.19,-19.65,-20.05,0,*63
1511582403.24,3447,8.94,73540.3,-2.17,-19.65,-19.91,0,*6B
1511582404.47,3448,8.94,73538.0,-2.19,-19.57,-19.95,0,*6F
1511582405.72,3449,8.94,73536.5,-2.19,-19.65,-19.85,0,*6E
1511582406.95,3450,8.94,73538.5,-2.19,-19.71,-19.85,0,*63
1511582408.2,3451,8.94,73534.5,-2.19,-19.65,-19.85,0,*67
1511582409.45,3452,8.94,73534.5,-2.19,-19.57,-19.85,0,*65
1511582410.71,3453,8.94,73536.3,-2.21,-19.57,-19.95,0,*6E
1511582411.97,3454,8.94,73538.5,-2.21,-19.65,-19.95,0,*68
1511582413.25,3455,8.94,73534.8,-2.21,-19.57,-19.85,0,*69
1511582414.51,3456,8.94,73534.0,-2.21,-19.65,-19.95,0,*6A
1511582415.76,3457,8.94,73532.0,-2.19,-19.65,-19.85,0,*61
1511582417.02,3458,8.94,73532.5,-2.19,-19.57,-19.85,0,*6F
1511582418.3,3459,8.94,73532.8,-2.21,-19.57,-19.85,0,*65
1511582419.55,3460,8.94,73532.0,-2.19,-19.65,-19.85,0,*65
1511582420.8,3461,8.94,73534.3,-2.21,-19.65,-20.05,0,*6D
1511582422.09,3462,8.94,73538.3,-2.21,-19.57,-19.85,0,*6D
1511582423.34,3463,8.94,73534.3,-2.21,-19.41,-19.71,0,*60
1511582424.57,3464,8.94,73534.5,-2.21,-19.51,-19.71,0,*66
1511582425.8,3465,8.94,73534.3,-2.21,-19.51,-19.71,0,*67
1511582427.05,3466,8.94,73534.8,-2.21,-19.51,-19.81,0,*6B
1511582428.31,3467,8.94,73534.0,-2.23,-19.57,-19.85,0,*6A
1511582429.57,3468,8.94,73536.0,-2.21,-19.51,-19.81,0,*65
1511582430.85,3469,8.94,73534.8,-2.21,-19.65,-19.85,0,*67
1511582432.12,3470,8.94,73538.0,-2.21,-19.65,-19.85,0,*6F
1511582433.4,3471,8.94,73536.0,-2.21,-19.65,-19.85,0,*6E
1511582434.68,3472,8.94,73534.5,-2.21,-19.65,-19.85,0,*6D
1511582435.96,3473,8.94,73536.0,-2.21,-19.65,-19.85,0,*6C
1511582437.17,3474,8.94,73538.0,-2.23,-19.71,-19.91,0,*69
1511582438.45,3475,8.94,73536.3,-2.21,-19.57,-19.85,0,*6B
1511582439.68,3476,8.94,73538.0,-2.21,-19.51,-19.71,0,*65
1511582440.94,3477,8.94,73538.3,-2.23,-19.41,-19.61,0,*66
1511582442.22,3478,8.94,73536.5,-2.21,-19.41,-19.65,0,*6F
1511582443.47,3479,8.94,73532.5,-2.21,-19.23,-19.51,0,*6D
1511582444.73,3480,8.94,73534.8,-2.23,-19.41,-19.61,0,*6E
1511582445.99,3481,8.94,73532.3,-2.21,-19.27,-19.51,0,*6E
1511582447.28,3482,8.94,73532.5,-2.21,-19.23,-19.41,0,*68
1511582448.54,3483,8.94,73530.5,-2.21,-19.27,-19.51,0,*6C
1511582449.8,3484,8.94,73536.3,-2.21,-19.27,-19.51,0,*6B
1511582451.06,3485,8.94,73532.0,-2.21,-19.27,-19.51,0,*6A
1511582452.34,3486,8.94,73534.3,-2.21,-19.41,-19.65,0,*6E
1511582453.57,3487,8.94,73536.0,-2.21,-19.51,-19.71,0,*6B
1511582454.83,3488,8.94,73532.0,-2.21,-19.37,-19.65,0,*61
1511582456.08,3489,8.94,73530.0,-2.19,-19.57,-19.81,0,*67
1511582457.34,3490,8.94,73536.5,-2.19,-19.57,-19.81,0,*6F
1511582458.59,3491,8.94,73532.0,-2.19,-19.57,-19.81,0,*6E
1511582459.87,3492,8.94,73538.5,-2.21,-19.65,-19.81,0,*67
1511582461.12,3493,8.94,73536.3,-2.19,-19.65,-19.85,0,*69
1511582462.37,3494,8.94,73534.0,-2.17,-19.51,-19.81,0,*63
1511582463.62,3495,8.94,73536.3,-2.19,-19.57,-19.81,0,*6A
1511582464.87,3496,8.94,73532.5,-2.21,-19.51,-19.81,0,*64
1511582466.07,3497,8.94,73538.8,-2.19,-19.51,-19.71,0,*61
1511582467.33,3498,8.94,73538.8,-2.21,-19.51,-19.65,0,*60
1511582468.61,3499,8.94,73534.0,-2.21,-19.41,-19.65,0,*60
1511582469.84,3500,8.94,73536.0,-2.21,-19.51,-19.71,0,*65
1511582471.12,3501,8.94,73538.0,-2.21,-19.57,-19.81,0,*6D
1511582472.4,3502,8.94,73534.0,-2.21,-19.65,-19.85,0,*6B
1511582473.68,3503,8.94,73534.8,-2.21,-19.65,-19.85,0,*6A
1511582474.96,3504,8.94,73532.8,-2.21,-19.57,-19.81,0,*68
1511582476.24,3505,8.94,73534.3,-2.21,-19.57,-19.85,0,*6D
1511582477.47,3506,8.94,73528.3,-2.19,-19.71,-19.85,0,*61
1511582478.68,3507,8.94,73528.3,-2.19,-19.71,-19.95,0,*61
1511582479.88,3508,8.94,73532.5,-2.23,-19.75,-19.99,0,*6F
1511582481.08,3509,8.94,73534.3,-2.23,-19.75,-19.91,0,*66
1511582482.33,3510,8.94,73530.8,-2.21,-19.81,-20.05,0,*60
1511582483.58,3511,8.94,73532.3,-2.21,-19.81,-19.95,0,*62
1511582484.83,3512,8.94,73532.3,-2.21,-19.71,-19.85,0,*6F
1511582486.06,3513,8.94,73532.5,-2.19,-19.65,-19.95,0,*61
1511582487.34,3514,8.94,73528.5,-2.21,-19.57,-19.85,0,*6D
1511582488.58,3515,8.94,73530.5,-2.23,-19.61,-19.75,0,*64
1511582489.81,3516,8.94,73530.0,-2.23,-19.71,-19.85,0,*69
1511582491.09,3517,8.94,73532.8,-2.21,-19.65,-19.85,0,*6F
1511582492.37,3518,8.94,73534.0,-2.21,-19.65,-19.81,0,*64
1511582493.62,3519,8.94,73536.0,-2.21,-19.57,-19.71,0,*6B
1511582494.91,3520,8.94,73532.8,-2.21,-19.57,-19.65,0,*64
1511582496.19,3521,8.94,73536.8,-2.21,-19.57,-19.65,0,*65
1511582497.4,3522,8.94,73532.5,-2.23,-19.71,-19.71,0,*65
1511582498.66,3523,8.94,73532.3,-2.23,-19.61,-19.85,0,*6E
1511582499.94,3524,8.94,73532.5,-2.21,-19.65,-19.81,0,*6B
1511582501.22,3525,8.94,73534.5,-2.21,-19.65,-19.81,0,*6A
1511582502.43,3526,8.94,73532.5,-2.23,-19.71,-19.75,0,*65
1511582503.66,3527,8.94,73534.0,-2.23,-19.71,-19.85,0,*6B
1511582504.91,3528,8.94,73534.3,-2.21,-19.71,-19.81,0,*62
1511582506.19,3529,8.94,73534.8,-2.21,-19.65,-19.81,0,*66
1511582507.42,3530,8.94,73532.5,-2.23,-19.75,-19.85,0,*69
1511582508.65,3531,8.94,73534.0,-2.23,-19.75,-19.85,0,*68
1511582509.9,3532,8.94,73530.5,-2.21,-19.71,-19.85,0,*6D
1511582511.11,3533,8.94,73532.0,-2.23,-19.75,-19.91,0,*6F
1511582512.33,3534,8.94,73534.8,-2.23,-19.75,-19.85,0,*6D
1511582513.58,3535,8.94,73534.5,-2.23,-19.85,-19.85,0,*63
1511582514.81,3536,8.94,73532.0,-2.23,-19.75,-19.85,0,*6F
1511582516.01,3537,8.94,73532.0,-2.27,-19.75,-19.75,0,*65
1511582517.22,3538,8.94,73528.5,-2.23,-19.75,-19.75,0,*6E
1511582518.45,3539,8.94,73532.0,-2.23,-19.61,-19.75,0,*6A
1511582519.68,3540,8.94,73532.3,-2.23,-19.75,-19.85,0,*6E
1511582520.91,3541,8.94,73530.3,-2.23,-19.75,-19.85,0,*6F
1511582522.14,3542,8.94,73534.0,-2.23,-19.61,-19.71,0,*62
1511582523.37,3543,8.94,73530.0,-2.23,-19.61,-19.71,0,*63
1511582524.61,3544,8.94,73528.5,-2.23,-19.61,-19.71,0,*64
1511582525.84,3545,8.94,73530.3,-2.23,-19.61,-19.71,0,*65
1511582527.07,3546,8.94,73534.3,-2.23,-19.61,-19.71,0,*66
1511582528.37,3547,8.94,73528.0,-2.21,-19.57,-19.57,0,*64
1511582529.6,3548,8.94,73532.5,-2.23,-19.71,-19.85,0,*62
1511582530.83,3549,8.94,73536.0,-2.21,-19.71,-19.71,0,*6A
1511582532.06,3550,8.94,73536.0,-2.23,-19.71,-19.85,0,*6B
1511582533.27,3551,8.94,73534.0,-2.23,-19.71,-19.75,0,*65
1511582534.5,3552,8.94,73532.5,-2.23,-19.75,-19.85,0,*6D
1511582535.75,3553,8.94,73536.0,-2.23,-19.85,-19.85,0,*63
1511582536.97,3554,8.94,73534.8,-2.23,-19.75,-19.85,0,*6B
1511582538.22,3555,8.94,73534.3,-2.23,-19.85,-19.85,0,*65
1511582539.45,3556,8.94,73532.0,-2.27,-19.75,-19.85,0,*6D
1511582540.68,3557,8.94,73532.3,-2.27,-19.71,-19.85,0,*68
1511582541.93,3558,8.94,73532.5,-2.27,-19.85,-19.85,0,*6C
1511582543.18,3559,8.94,73532.0,-2.27,-19.85,-19.85,0,*6D
1511582544.41,3560,8.94,73534.8,-2.27,-19.85,-19.91,0,*62
1511582545.63,3561,8.94,73534.3,-2.27,-19.75,-19.85,0,*69
1511582546.89,3562,8.94,73532.0,-2.27,-19.85,-19.85,0,*65
1511582548.13,3563,8.94,73534.0,-2.29,-19.81,-19.91,0,*6B
1511582549.36,3564,8.94,73532.0,-2.29,-19.91,-19.91,0,*6D
1511582550.56,3565,8.94,73532.5,-2.27,-19.75,-19.75,0,*62
1511582551.79,3566,8.94,73534.8,-2.27,-19.75,-19.85,0,*6E
1511582553.04,3567,8.94,73528.3,-2.29,-19.91,-19.81,0,*6F
1511582554.27,3568,8.94,73532.0,-2.29,-19.91,-19.91,0,*61
1511582555.52,3569,8.94,73536.3,-2.29,-19.91,-19.81,0,*61
1511582556.79,3570,8.94,73532.5,-2.29,-19.81,-19.81,0,*68
1511582558.01,3571,8.94,73532.3,-2.27,-19.75,-19.85,0,*68
1511582559.26,3572,8.94,73532.0,-2.29,-19.81,-19.91,0,*6B
1511582560.51,3573,8.94,73530.8,-2.27,-19.85,-19.85,0,*65
1511582561.76,3574,8.94,73532.8,-2.29,-19.91,-19.81,0,*6D
1511582563.0,3575,8.94,73536.0,-2.29,-19.81,-19.75,0,*66
1511582564.28,3576,8.94,73534.5,-2.29,-19.65,-19.65,0,*6E
1511582565.54,3577,8.94,73536.3,-2.31,-19.65,-19.65,0,*66
1511582566.81,3578,8.94,73538.0,-2.31,-19.65,-19.61,0,*6D
1511582568.01,3579,8.94,73534.3,-2.31,-19.75,-19.75,0,*68
1511582569.24,3580,8.94,73538.3,-2.31,-19.81,-19.75,0,*65
1511582570.47,3581,8.94,73538.3,-2.31,-19.75,-19.65,0,*6E
1511582571.72,3582,8.94,73538.5,-2.29,-19.75,-19.61,0,*60
1511582572.97,3583,8.94,73536.8,-2.29,-19.81,-19.75,0,*6F
1511582574.24,3584,8.94,73536.8,-2.29,-19.81,-19.65,0,*69
1511582575.51,3585,8.94,73536.0,-2.33,-19.85,-19.81,0,*6D
1511582576.74,3586,8.94,73532.5,-2.31,-19.81,-19.75,0,*63
1511582577.98,3587,8.94,73534.0,-2.29,-19.81,-19.75,0,*6B
1511582579.19,3588,8.94,73536.0,-2.31,-19.91,-19.75,0,*6C
1511582580.41,3589,8.94,73538.5,-2.31,-19.81,-19.75,0,*6C
1511582581.67,3590,8.94,73534.8,-2.33,-19.95,-19.81,0,*68
1511582582.92,3591,8.94,73536.0,-2.31,-19.81,-19.65,0,*64
1511582584.17,3592,8.94,73538.0,-2.31,-19.81,-19.65,0,*67
1511582585.39,3593,8.94,73534.8,-2.31,-19.81,-19.75,0,*67
1511582586.62,3594,8.94,73532.8,-2.33,-19.95,-19.71,0,*63
1511582587.89,3595,8.94,73536.5,-2.33,-19.81,-19.65,0,*62
1511582589.15,3596,8.94,73536.5,-2.33,-19.95,-19.81,0,*6E
1511582590.39,3597,8.94,73538.8,-2.29,-19.81,-19.91,0,*60
1511582591.67,3598,8.94,73536.8,-2.33,-19.85,-19.81,0,*61
1511582592.95,3599,8.94,73530.3,-2.33,-19.85,-19.81,0,*60
1511582594.22,3600,8.94,73534.0,-2.33,-19.85,-19.81,0,*63
1511582595.45,3601,8.94,73534.5,-2.33,-19.95,-19.71,0,*6C
1511582596.7,3602,8.94,73532.5,-2.33,-19.81,-19.71,0,*6A
1511582597.98,3603,8.94,73534.3,-2.33,-19.85,-19.81,0,*60
1511582599.22,3604,8.94,73532.8,-2.31,-19.81,-19.65,0,*6B
1511582600.5,3605,8.94,73534.8,-2.33,-19.81,-19.65,0,*68
1511582601.76,3606,8.94,73530.5,-2.33,-19.71,-19.57,0,*65
1511582602.97,3607,8.94,73532.0,-2.31,-19.75,-19.51,0,*64
1511582604.25,3608,8.94,73534.8,-2.33,-19.81,-19.57,0,*64
1511582605.53,3609,8.94,73532.8,-2.33,-19.85,-19.65,0,*60
1511582606.76,3610,8.94,73532.8,-2.33,-19.95,-19.71,0,*6C
1511582608.0,3611,8.94,73528.3,-2.33,-19.81,-19.71,0,*68
1511582609.28,3612,8.94,73530.5,-2.33,-19.81,-19.57,0,*6F
1511582610.49,3613,8.94,73534.5,-2.35,-19.71,-19.51,0,*61
1511582611.72,3614,8.94,73530.8,-2.35,-19.71,-19.65,0,*61
1511582612.98,3615,8.94,73534.8,-2.37,-19.85,-19.71,0,*6C
1511582614.22,3616,8.94,73534.0,-2.35,-19.71,-19.57,0,*62
1511582615.45,3617,8.94,73532.8,-2.35,-19.71,-19.65,0,*62
1511582616.69,3618,8.94,73534.3,-2.35,-19.71,-19.65,0,*6D
1511582617.93,3619,8.94,73530.5,-2.35,-19.81,-19.65,0,*63
1511582619.14,3620,8.94,73528.5,-2.35,-19.95,-19.71,0,*69
1511582620.36,3621,8.94,73534.5,-2.35,-19.81,-19.71,0,*6D
1511582621.61,3622,8.94,73534.5,-2.35,-19.85,-19.61,0,*6B
1511582622.87,3623,8.94,73532.8,-2.37,-19.75,-19.61,0,*67
1511582624.12,3624,8.94,73532.5,-2.37,-19.75,-19.61,0,*60
1511582625.4,3625,8.94,73532.5,-2.37,-19.85,-19.61,0,*6E
1511582626.66,3626,8.94,73534.5,-2.35,-19.81,-19.57,0,*6E
1511582627.89,3627,8.94,73534.0,-2.35,-19.71,-19.65,0,*61
1511582629.14,3628,8.94,73532.3,-2.35,-19.81,-19.65,0,*61
1511582630.38,3629,8.94,73532.0,-2.35,-19.71,-19.57,0,*6E
1511582631.6,3630,8.94,73534.8,-2.35,-19.81,-19.51,0,*6F
1511582632.83,3631,8.94,73532.8,-2.37,-19.75,-19.71,0,*65
1511582634.06,3632,8.94,73532.3,-2.37,-19.99,-19.71,0,*64
1511582635.31,3633,8.94,73536.8,-2.37,-19.85,-19.71,0,*68
1511582636.59,3634,8.94,73534.5,-2.37,-19.85,-19.65,0,*6A
1511582637.84,3635,8.94,73532.8,-2.35,-19.85,-19.65,0,*69
1511582639.07,3636,8.94,73534.5,-2.37,-19.91,-19.71,0,*68
1511582640.33,3637,8.94,73530.5,-2.37,-19.85,-19.71,0,*6C
1511582641.58,3638,8.94,73530.5,-2.37,-19.75,-19.61,0,*6D
1511582642.85,3639,8.94,73532.8,-2.37,-19.75,-19.57,0,*69
1511582644.08,3640,8.94,73532.8,-2.33,-19.71,-19.51,0,*61
1511582645.31,3641,8.94,73534.8,-2.35,-19.71,-19.41,0,*67
1511582646.57,3642,8.94,73534.3,-2.35,-19.81,-19.57,0,*6C
1511582647.85,3643,8.94,73534.5,-2.37,-19.85,-19.57,0,*6B
1511582649.13,3644,8.94,73532.3,-2.37,-19.85,-19.61,0,*69
1511582650.41,3645,8.94,73536.3,-2.37,-19.85,-19.61,0,*68
1511582651.67,3646,8.94,73536.8,-2.37,-19.75,-19.57,0,*61
1511582652.94,3647,8.94,73532.3,-2.37,-19.75,-19.57,0,*60
1511582654.2,3648,8.94,73534.8,-2.37,-19.75,-19.57,0,*6F
1511582655.46,3649,8.94,73532.0,-2.37,-19.75,-19.57,0,*6E
1511582656.69,3650,8.94,73532.0,-2.37,-19.75,-19.47,0,*67
1511582657.98,3651,8.94,73534.8,-2.37,-19.85,-19.57,0,*68
1511582659.23,3652,8.94,73534.0,-2.37,-19.85,-19.47,0,*6A
1511582660.49,3653,8.94,73532.5,-2.37,-19.75,-19.41,0,*62
1511582661.69,3654,8.94,73534.3,-2.35,-19.71,-19.47,0,*65
1511582662.93,3655,8.94,73536.0,-2.35,-19.61,-19.37,0,*62
1511582664.21,3656,8.94,73534.8,-2.37,-19.61,-19.31,0,*65
1511582665.47,3657,8.94,73538.5,-2.37,-19.47,-19.23,0,*63
1511582666.72,3658,8.94,73534.8,-2.37,-19.47,-19.27,0,*68
1511582668.01,3659,8.94,73534.3,-2.37,-19.61,-19.27,0,*6D
1511582669.29,3660,8.94,73534.5,-2.37,-19.61,-19.23,0,*63
1511582670.58,3661,8.94,73534.3,-2.37,-19.57,-19.27,0,*63
1511582671.84,3662,8.94,73530.8,-2.37,-19.71,-19.31,0,*63
1511582673.1,3663,8.94,73528.5,-2.37,-19.71,-19.31,0,*62
1511582674.36,3664,8.94,73528.3,-2.35,-19.65,-19.27,0,*65
1511582675.64,3665,8.94,73528.8,-2.37,-19.61,-19.27,0,*62
1511582676.91,3666,8.94,73530.3,-2.37,-19.71,-19.41,0,*60
1511582678.17,3667,8.94,73530.8,-2.37,-19.71,-19.41,0,*61
1511582679.43,3668,8.94,73534.3,-2.37,-19.71,-19.31,0,*69
1511582680.66,3669,8.94,73534.3,-2.35,-19.51,-19.23,0,*6B
1511582681.94,3670,8.94,73530.3,-2.37,-19.57,-19.23,0,*67
1511582683.22,3671,8.94,73532.5,-2.37,-19.57,-19.23,0,*66
1511582684.51,3672,8.94,73532.3,-2.37,-19.61,-19.41,0,*64
1511582685.8,3673,8.94,73532.3,-2.37,-19.61,-19.27,0,*65
1511582687.03,3674,8.94,73528.5,-2.35,-19.71,-19.41,0,*61
1511582688.32,3675,8.94,73534.8,-2.37,-19.61,-19.27,0,*63
1511582689.58,3676,8.94,73528.3,-2.37,-19.71,-19.27,0,*61
1511582690.86,3677,8.94,73534.3,-2.37,-19.61,-19.27,0,*61
1511582692.13,3678,8.94,73532.5,-2.37,-19.61,-19.17,0,*6D
1511582693.42,3679,8.94,73534.8,-2.37,-19.57,-19.27,0,*6A
1511582694.65,3680,8.94,73534.8,-2.35,-19.57,-19.37,0,*6F
1511582695.86,3681,8.94,73532.5,-2.35,-19.51,-19.17,0,*6A
1511582697.14,3682,8.94,73532.3,-2.37,-19.61,-19.23,0,*6F
1511582698.4,3683,8.94,73534.0,-2.37,-19.71,-19.41,0,*6B
1511582699.69,3684,8.94,73534.3,-2.37,-19.61,-19.31,0,*6A
1511582700.95,3685,8.94,73536.0,-2.37,-19.71,-19.41,0,*6D
1511582702.21,3686,8.94,73532.0,-2.37,-19.71,-19.31,0,*69
1511582703.47,3687,8.94,73534.8,-2.37,-19.71,-19.31,0,*68
1511582704.76,3688,8.94,73532.0,-2.37,-19.61,-19.41,0,*61
1511582706.02,3689,8.94,73532.5,-2.37,-19.71,-19.31,0,*66
1511582707.28,3690,8.94,73534.8,-2.37,-19.71,-19.41,0,*69
1511582708.57,3691,8.94,73530.8,-2.37,-19.61,-19.31,0,*6E
1511582709.85,3692,8.94,73528.8,-2.37,-19.61,-19.31,0,*6D
1511582711.11,3693,8.94,73530.5,-2.37,-19.71,-19.27,0,*6A
1511582712.37,3694,8.94,73530.8,-2.37,-19.47,-19.23,0,*6C
1511582713.63,3695,8.94,73532.5,-2.35,-19.57,-19.27,0,*6A
1511582714.91,3696,8.94,73532.0,-2.37,-19.61,-19.27,0,*6E
1511582716.2,3697,8.94,73534.5,-2.37,-19.61,-19.31,0,*68
1511582717.49,3698,8.94,73534.5,-2.37,-19.61,-19.27,0,*60
1511582718.77,3699,8.94,73530.3,-2.37,-19.57,-19.27,0,*64
1511582720.06,3700,8.94,73534.8,-2.37,-19.57,-19.23,0,*61
1511582721.32,3701,8.94,73536.5,-2.39,-19.65,-19.31,0,*6C
1511582722.58,3702,8.94,73530.3,-2.39,-19.65,-19.31,0,*6F
1511582723.87,3703,8.94,73530.0,-2.37,-19.61,-19.41,0,*63
1511582725.12,3704,8.94,73528.8,-2.35,-19.65,-19.27,0,*62
1511582726.38,3705,8.94,73532.0,-2.37,-19.71,-19.31,0,*63
1511582727.64,3706,8.94,73534.0,-2.37,-19.71,-19.31,0,*60
1511582728.88,3707,8.94,73530.5,-2.39,-19.75,-19.31,0,*6B
1511582730.14,3708,8.94,73534.0,-2.39,-19.61,-19.31,0,*61
1511582731.37,3709,8.94,73532.5,-2.39,-19.51,-19.31,0,*63
1511582732.64,3710,8.94,73528.8,-2.39,-19.61,-19.31,0,*68
1511582733.92,3711,8.94,73534.8,-2.37,-19.57,-19.23,0,*61
1511582735.2,3712,8.94,73536.8,-2.37,-19.57,-19.23,0,*62
1511582736.49,3713,8.94,73530.5,-2.37,-19.57,-19.27,0,*67
1511582737.76,3714,8.94,73530.3,-2.37,-19.57,-19.13,0,*67
1511582739.04,3715,8.94,73532.5,-2.37,-19.57,-19.23,0,*65
1511582740.3,3716,8.94,73532.3,-2.39,-19.61,-19.31,0,*6E
1511582741.59,3717,8.94,73532.5,-2.37,-19.57,-19.27,0,*63
1511582742.87,3718,8.94,73534.3,-2.37,-19.61,-19.23,0,*6D
1511582744.11,3719,8.94,73534.5,-2.37,-19.47,-19.13,0,*6B
1511582745.39,3720,8.94,73530.0,-2.37,-19.57,-19.27,0,*67
1511582746.68,3721,8.94,73530.0,-2.37,-19.57,-19.23,0,*62
1511582747.93,3722,8.94,73528.0,-2.37,-19.47,-19.23,0,*60
1511582749.19,3723,8.94,73528.0,-2.37,-19.41,-19.13,0,*64
1511582750.48,3724,8.94,73534.0,-2.37,-19.57,-19.27,0,*63
1511582751.74,3725,8.94,73530.8,-2.37,-19.61,-19.17,0,*64
1511582752.99,3726,8.94,73534.3,-2.35,-19.65,-19.23,0,*66
1511582754.25,3727,8.94,73534.0,-2.35,-19.57,-19.23,0,*66
1511582755.47,3728,8.94,73532.8,-2.35,-19.47,-19.23,0,*68
1511582756.73,3729,8.94,73532.3,-2.35,-19.23,-18.93,0,*61
1511582757.97,3730,8.94,73532.5,-2.39,-19.13,-18.89,0,*6D
1511582759.2,3731,8.94,73532.0,-2.37,-19.13,-18.99,0,*63
1511582760.46,3732,8.94,73530.8,-2.37,-19.23,-18.99,0,*63
1511582761.72,3733,8.94,73530.0,-2.37,-19.27,-18.99,0,*66
1511582762.94,3734,8.94,73530.5,-2.37,-19.03,-18.83,0,*6C
1511582764.17,3735,8.94,73530.8,-2.37,-19.13,-18.83,0,*6C
1511582765.4,3736,8.94,73528.3,-2.37,-19.07,-18.83,0,*6A
1511582766.6,3737,8.94,73526.8,-2.35,-19.07,-18.79,0,*6C
1511582767.83,3738,8.94,73526.5,-2.35,-18.93,-18.73,0,*65
1511582769.06,3739,8.94,73528.5,-2.35,-19.17,-18.89,0,*6C
1511582770.32,3740,8.94,73526.8,-2.35,-19.23,-18.93,0,*6E
1511582771.52,3741,8.94,73526.0,-2.35,-19.17,-18.79,0,*6C
1511582772.75,3742,8.94,73524.3,-2.35,-18.89,-18.65,0,*64
1511582774.0,3743,8.94,73524.5,-2.33,-18.89,-18.79,0,*6E
1511582775.25,3744,8.94,73526.8,-2.33,-19.03,-18.89,0,*65
1511582776.51,3745,8.94,73522.8,-2.33,-19.17,-18.93,0,*6A
1511582777.77,3746,8.94,73526.3,-2.33,-19.17,-18.93,0,*69
1511582778.99,3747,8.94,73528.0,-2.33,-19.37,-19.07,0,*66
1511582780.23,3748,8.94,73524.5,-2.33,-19.37,-19.17,0,*68
1511582781.51,3749,8.94,73524.3,-2.33,-19.57,-19.23,0,*68
1511582782.8,3750,8.94,73526.5,-2.33,-19.57,-19.27,0,*64
1511582784.08,3751,8.94,73524.3,-2.33,-19.65,-19.23,0,*60
1511582785.36,3752,8.94,73526.0,-2.33,-19.57,-19.27,0,*66
1511582786.62,3753,8.94,73528.0,-2.33,-19.51,-19.27,0,*61
1511582787.88,3754,8.94,73532.3,-2.33,-19.51,-19.27,0,*66
1511582789.17,3755,8.94,73528.3,-2.33,-19.57,-19.27,0,*61
1511582790.42,3756,8.94,73530.3,-2.33,-19.51,-19.23,0,*60
1511582791.65,3757,8.94,73526.5,-2.35,-19.51,-19.23,0,*67
1511582792.9,3758,8.94,73528.8,-2.35,-19.41,-19.23,0,*69
1511582794.11,3759,8.94,73530.3,-2.35,-19.37,-19.17,0,*6E
1511582795.35,3760,8.94,73532.8,-2.35,-19.27,-19.17,0,*65
1511582796.56,3761,8.94,73530.3,-2.35,-19.17,-19.03,0,*62
1511582797.81,3762,8.94,73528.8,-2.33,-19.23,-19.03,0,*60
1511582799.03,3763,8.94,73530.3,-2.33,-19.03,-18.79,0,*6F
1511582800.29,3764,8.94,73530.0,-2.33,-19.17,-18.93,0,*69
1511582801.55,3765,8.94,73530.5,-2.33,-19.41,-19.17,0,*66
1511582802.81,3766,8.94,73528.3,-2.33,-19.37,-19.23,0,*63
1511582804.08,3767,8.94,73530.3,-2.33,-19.41,-19.23,0,*63
1511582805.36,3768,8.94,73530.5,-2.33,-19.41,-19.23,0,*6C
1511582806.59,3769,8.94,73534.3,-2.33,-19.17,-19.03,0,*6C
1511582807.84,3770,8.94,73530.3,-2.33,-19.23,-19.03,0,*63
1511582809.08,3771,8.94,73530.5,-2.33,-19.37,-19.17,0,*62
1511582810.33,3772,8.94,73528.8,-2.33,-19.23,-19.03,0,*61
1511582811.58,3773,8.94,73528.8,-2.33,-19.03,-18.89,0,*61
1511582812.83,3774,8.94,73530.0,-2.33,-19.23,-19.03,0,*67
1511582814.09,3775,8.94,73528.8,-2.33,-19.27,-19.07,0,*66
1511582815.3,3776,8.94,73528.3,-2.31,-19.13,-18.99,0,*66
1511582816.53,3777,8.94,73528.8,-2.33,-19.17,-19.03,0,*63
1511582817.76,3778,8.94,73528.0,-2.33,-19.37,-19.07,0,*6A
1511582818.99,3779,8.94,73528.8,-2.31,-19.31,-19.03,0,*6B
1511582820.24,3780,8.94,73528.3,-2.33,-19.27,-19.07,0,*6C
1511582821.5,3781,8.94,73526.3,-2.33,-19.27,-19.07,0,*6D
1511582822.77,3782,8.94,73530.8,-2.33,-19.27,-19.17,0,*6F
1511582824.05,3783,8.94,73528.3,-2.33,-19.41,-19.23,0,*69
1511582825.3,3784,8.94,73528.5,-2.33,-19.51,-19.27,0,*6B
1511582826.51,3785,8.94,73528.5,-2.31,-19.17,-18.99,0,*6E
1511582827.72,3786,8.94,73530.5,-2.31,-19.17,-18.99,0,*6D
1511582828.98,3787,8.94,73530.3,-2.33,-19.27,-19.07,0,*6B
1511582830.24,3788,8.94,73528.3,-2.33,-19.27,-19.17,0,*65
1511582831.45,3789,8.94,73526.8,-2.31,-19.13,-18.99,0,*66
1511582832.66,3790,8.94,73528.0,-2.31,-19.17,-19.03,0,*68
1511582833.87,3791,8.94,73528.8,-2.31,-19.13,-19.03,0,*6D
1511582835.1,3792,8.94,73530.8,-2.31,-19.23,-19.03,0,*6D
1511582836.36,3793,8.94,73526.0,-2.33,-19.27,-19.07,0,*6E
1511582837.62,3794,8.94,73524.8,-2.33,-19.27,-19.17,0,*68
1511582838.86,3795,8.94,73530.0,-2.31,-19.23,-19.13,0,*6B
1511582840.12,3796,8.94,73526.3,-2.33,-19.27,-19.07,0,*6B
1511582841.35,3797,8.94,73526.3,-2.31,-19.23,-19.03,0,*68
1511582842.61,3798,8.94,73524.3,-2.33,-19.37,-19.23,0,*62
1511582843.84,3799,8.94,73524.8,-2.31,-19.23,-19.13,0,*67
1511582845.11,3800,8.94,73530.3,-2.33,-19.27,-19.17,0,*6A
1511582846.34,3801,8.94,73526.5,-2.33,-19.17,-19.07,0,*69
1511582847.56,3802,8.94,73528.0,-2.33,-19.37,-19.07,0,*68
1511582848.77,3803,8.94,73526.3,-2.31,-19.17,-19.03,0,*6D
1511582850.02,3804,8.94,73526.5,-2.33,-19.23,-19.03,0,*6F
1511582851.23,3805,8.94,73526.8,-2.31,-18.99,-18.99,0,*6E
1511582852.48,3806,8.94,73526.5,-2.33,-19.03,-18.89,0,*6C
1511582853.73,3807,8.94,73526.3,-2.33,-19.07,-18.93,0,*62
1511582854.96,3808,8.94,73528.0,-2.31,-19.03,-18.89,0,*60
1511582856.18,3809,8.94,73528.0,-2.31,-19.03,-18.89,0,*61
1511582857.41,3810,8.88,73524.5,-2.31,-18.99,-18.89,0,*6B
1511582858.62,3811,8.94,73528.3,-2.31,-19.13,-18.99,0,*68
1511582859.82,3812,8.94,73528.3,-2.31,-19.03,-18.99,0,*6A
1511582861.04,3813,8.94,73528.0,-2.29,-19.03,-18.99,0,*62
1511582862.27,3814,8.94,73530.5,-2.31,-19.03,-18.89,0,*6D
1511582863.49,3815,8.94,73526.5,-2.29,-19.03,-18.99,0,*64
1511582864.72,3816,8.94,73530.5,-2.27,-18.99,-18.93,0,*61
1511582865.95,3817,8.94,73528.0,-2.27,-18.99,-18.93,0,*60
1511582867.16,3818,8.94,73530.0,-2.27,-19.17,-19.03,0,*60
1511582868.39,3819,8.94,73530.5,-2.29,-19.13,-19.03,0,*6B
1511582869.62,3820,8.94,73528.0,-2.29,-19.17,-19.17,0,*60
1511582870.86,3821,8.94,73530.8,-2.29,-19.17,-19.13,0,*65
1511582872.06,3822,8.94,73524.5,-2.27,-19.17,-18.99,0,*6B
1511582873.26,3823,8.94,73530.5,-2.27,-19.13,-19.07,0,*68
1511582874.5,3824,8.94,73526.5,-2.27,-19.13,-18.93,0,*63
1511582875.7,3825,8.94,73530.0,-2.27,-19.07,-18.99,0,*6D
1511582876.91,3826,8.94,73530.8,-2.27,-19.13,-18.99,0,*6B
1511582878.14,3827,8.94,73524.5,-2.29,-19.17,-19.17,0,*67
1511582879.34,3828,8.94,73528.0,-2.27,-19.13,-19.07,0,*63
1511582880.58,3829,8.94,73526.8,-2.29,-19.17,-19.13,0,*6D
1511582881.81,3830,8.94,73524.3,-2.29,-19.17,-19.13,0,*65
1511582883.07,3831,8.94,73524.3,-2.29,-19.17,-18.93,0,*6D
1511582884.3,3832,8.94,73530.0,-2.29,-19.17,-19.03,0,*66
1511582885.56,3833,8.88,73524.8,-2.29,-19.23,-19.13,0,*61
1511582886.79,3834,8.94,73530.0,-2.29,-19.17,-19.17,0,*65
1511582888.02,3835,8.94,73524.5,-2.29,-18.99,-18.99,0,*64
1511582889.27,3836,8.94,73524.0,-2.27,-18.93,-18.93,0,*69
1511582890.47,3837,8.94,73526.0,-2.27,-19.13,-19.07,0,*6D
1511582891.67,3838,8.94,73522.8,-2.27,-19.07,-18.99,0,*61
1511582892.9,3839,8.94,73522.5,-2.29,-18.99,-18.99,0,*68
1511582894.1,3840,8.94,73526.0,-2.27,-19.07,-18.99,0,*6E
1511582895.3,3841,8.94,73526.3,-2.27,-19.07,-18.99,0,*6F
1511582896.49,3842,8.94,73524.0,-2.27,-19.07,-19.07,0,*6A
1511582897.71,3843,8.94,73524.3,-2.27,-19.13,-19.13,0,*6B
1511582898.94,3844,8.94,73528.3,-2.29,-19.13,-19.17,0,*66
1511582900.14,3845,8.94,73528.5,-2.23,-18.99,-18.99,0,*69
1511582901.35,3846,8.94,73530.5,-2.23,-19.07,-18.99,0,*6C
1511582902.54,3847,8.94,73528.0,-2.23,-19.07,-19.07,0,*6B
1511582903.76,3848,8.94,73532.8,-2.23,-19.13,-19.13,0,*64
1511582904.97,3849,8.94,73528.3,-2.27,-19.13,-19.17,0,*65
1511582906.18,3850,8.94,73530.5,-2.27,-19.17,-19.13,0,*6D
1511582907.39,3851,8.94,73526.8,-2.27,-19.13,-18.99,0,*6B
1511582908.59,3852,8.94,73526.0,-2.27,-19.07,-19.13,0,*6E
1511582909.8,3853,8.94,73526.5,-2.27,-19.13,-19.07,0,*6F
1511582911.0,3854,8.94,73526.8,-2.23,-19.13,-19.07,0,*6C
1511582912.24,3855,8.94,73524.5,-2.23,-19.27,-19.13,0,*6F
1511582913.46,3856,8.94,73530.5,-2.23,-19.13,-19.13,0,*6B
1511582914.69,3857,8.94,73524.8,-2.23,-18.99,-18.93,0,*60
1511582915.94,3858,8.94,73526.3,-2.23,-18.93,-18.93,0,*65